Weather in Buea

Cameroon     4°08′59″N   9°14′46″E
temp.,
°C
wind,
m/s
gust,
m/s
humid.,
%
clouds,
%
prec.,
mm/h
press.,
hPa
HPBL,
m
7 march, sun
sun701:00+20sw118923 1.8 101227
04:00+19ssw019589 0.1 101041
07:00+20sw128995 0.1 101232
10:00+25ne1168100 0.0 1013771
13:00+26n1265100 0.3 10111050
16:00+25nw1268100 1.0 1008930
19:00+21sw228799 1.6 101076
22:00+21wsw118550 0.0 101151
8 march, mon
mon801:00+20wsw118636 0.1 101139
04:00+19w119158 0.0 100931
07:00+20sw119264 0.3 101177
10:00+24ne1175100 0.1 1012571
13:00+27ne126397 0.8 1009911
16:00+26nnw126866 1.1 1007853
19:00+21s019164 4.4 1008104
22:00+20wsw119136 1.4 101035
9 march, tue
tue901:00+20w119218 1.4 100930
04:00+19wsw019378 0.1 100834
07:00+20s018988 0.1 100924
10:00+26e11719 0.1 1011701
13:00+25ne127434 1.0 1008648
16:00+25sse017786 1.1 1006619
19:00+21ssw019492 3.1 1008106
22:00+21sw119377 0.9 101045
10 march, wed
wed1001:00+20wsw119353 1.5 100951
04:00+20ne019573 0.3 100876
07:00+20ssw119358 0.6 100935
10:00+23e118482 0.6 1011343
13:00+23e118689 2.6 1009344
16:00+24n018288 1.4 1006484
19:00+21nnw129585 2.5 1008215
22:00+20sse119498 2.6 101043
11 march, thu
thu1101:00+20s119199 3.6 100985
04:00+20w119383 0.4 100828
07:00+20wsw009297 0.8 101071
10:00+24e117956 1.0 1011475
13:00+23ne128578 2.6 1009409
16:00+24nnw118092 1.1 1006535
19:00+21wsw129095 1.2 1008100
22:00+21wnw129195 1.6 1010187